TimeEDT,TemperatureF,Dew PointF,Humidity,Sea Level PressureIn,VisibilityMPH,Wind Direction,Wind SpeedMPH,Gust SpeedMPH,PrecipitationIn,Events,Conditions,WindDirDegrees,DateUTC
12:54 AM,63.0,57.9,84,30.03,10.0,SE,3.5,-,N/A,,Partly Cloudy,140,2013-05-10 04:54:00
1:54 AM,63.0,57.9,84,30.03,10.0,Calm,Calm,-,N/A,,Partly Cloudy,0,2013-05-10 05:54:00
2:54 AM,61.0,57.9,90,30.03,10.0,South,4.6,-,N/A,,Partly Cloudy,170,2013-05-10 06:54:00
3:54 AM,60.1,57.0,90,30.03,10.0,South,3.5,-,N/A,,Partly Cloudy,170,2013-05-10 07:54:00
4:54 AM,60.1,55.9,86,30.03,10.0,South,4.6,-,N/A,,Partly Cloudy,190,2013-05-10 08:54:00
5:54 AM,57.0,54.0,89,30.03,10.0,South,3.5,-,N/A,,Scattered Clouds,180,2013-05-10 09:54:00
6:54 AM,59.0,55.9,90,30.04,10.0,Calm,Calm,-,N/A,,Mostly Cloudy,0,2013-05-10 10:54:00
7:54 AM,62.6,59.0,88,30.03,10.0,South,4.6,-,N/A,,Mostly Cloudy,180,2013-05-10 11:54:00
8:54 AM,68.0,60.8,78,30.03,10.0,SSW,3.5,-,N/A,,Mostly Cloudy,200,2013-05-10 12:54:00
9:54 AM,72.0,61.0,68,30.05,10.0,SSW,3.5,-,N/A,,Mostly Cloudy,210,2013-05-10 13:54:00
10:54 AM,79.0,60.1,52,30.05,10.0,South,4.6,-,N/A,,Mostly Cloudy,190,2013-05-10 14:54:00
11:54 AM,81.0,55.9,42,30.03,10.0,South,8.1,-,N/A,,Scattered Clouds,180,2013-05-10 15:54:00
12:54 PM,82.4,59.0,45,29.99,10.0,South,8.1,-,N/A,,Mostly Cloudy,180,2013-05-10 16:54:00
1:54 PM,84.9,57.9,40,29.99,10.0,SW,11.5,20.7,N/A,,Mostly Cloudy,220,2013-05-10 17:54:00
2:54 PM,86.0,57.0,37,29.97,10.0,WSW,13.8,23.0,N/A,,Mostly Cloudy,240,2013-05-10 18:54:00
3:54 PM,84.9,57.0,38,29.96,10.0,SW,15.0,-,N/A,,Overcast,230,2013-05-10 19:54:00
4:54 PM,86.0,57.9,38,29.94,10.0,SW,16.1,21.9,N/A,,Overcast,220,2013-05-10 20:54:00
5:54 PM,82.4,57.2,42,29.93,10.0,SSW,11.5,-,N/A,,Overcast,200,2013-05-10 21:54:00
6:54 PM,80.1,61.0,52,29.92,10.0,South,9.2,-,N/A,,Overcast,190,2013-05-10 22:54:00
7:54 PM,75.0,61.0,62,29.93,10.0,South,6.9,-,N/A,,Overcast,180,2013-05-10 23:54:00
8:54 PM,73.9,60.1,62,29.93,10.0,South,8.1,-,N/A,,Overcast,180,2013-05-11 00:54:00
9:54 PM,73.0,60.1,64,29.94,10.0,South,8.1,-,N/A,,Overcast,180,2013-05-11 01:54:00
10:54 PM,72.0,60.1,66,29.94,10.0,South,8.1,-,N/A,,Overcast,180,2013-05-11 02:54:00
11:54 PM,73.0,60.1,64,29.94,10.0,South,8.1,-,N/A,,Overcast,180,2013-05-11 03:54:00